Location: UBC Liquid-Mirror Observatory
(49.2876°N, 122.5728°W)
Time: 11:48:45
(UTC-07:00)

KITSAT 1 - Visible Passes

Search period start: 30 July 2016 00:00
Search period end: 09 August 2016 00:00
Orbit: 1308 x 1323 km, 66.1° (Epoch: 30 July)

Date Brightness Start Highest point End Pass type
(mag) Time Alt. Az. Time Alt. Az. Time Alt. Az.
30 Jul 10.6 00:11:51 33° SSE 00:14:46 44° ESE 00:22:19 10° NE visible
30 Jul 10.6 02:03:47 18° WSW 02:10:00 59° NW 02:18:03 10° NE visible
30 Jul 11.9 04:00:27 10° WNW 04:07:13 28° NNW 04:13:59 10° NE visible
30 Jul 11.7 22:35:01 12° ESE 22:36:54 14° E 22:40:28 10° ENE visible
31 Jul 10.3 00:26:57 34° S 00:30:38 61° ESE 00:38:35 10° NE visible
31 Jul 11.0 02:18:53 11° WSW 02:26:22 47° NW 02:34:10 10° NE visible
31 Jul 12.1 04:17:29 10° WNW 04:23:59 25° N 04:30:28 10° NE visible
31 Jul 11.4 22:50:03 18° SE 22:52:24 21° ESE 22:58:01 10° ENE visible
01 Aug 10.1 00:41:58 29° SSW 00:46:37 81° ESE 00:54:46 10° NE visible
01 Aug 11.4 02:35:22 10° W 02:42:50 38° NNW 02:50:20 10° NE visible
01 Aug 12.2 04:34:26 10° NW 04:40:48 24° N 04:47:09 10° NE visible
01 Aug 11.0 23:04:57 24° SE 23:08:01 30° ESE 23:14:47 10° NE visible
02 Aug 10.3 00:56:52 21° SW 01:02:43 78° NW 01:10:54 10° NE visible
02 Aug 11.7 02:52:18 10° W 02:59:26 32° NNW 03:06:34 10° NE visible
02 Aug 12.2 04:51:15 10° NW 04:57:38 24° N 05:03:59 10° ENE visible
02 Aug 10.6 23:19:43 26° SSE 23:23:45 43° ESE 23:31:15 10° NE visible
03 Aug 10.6 01:11:37 13° WSW 01:18:57 61° NW 01:27:01 10° NE visible
03 Aug 11.9 03:09:20 10° WNW 03:16:07 28° NNW 03:22:55 10° NE visible
03 Aug 12.3 05:07:54 10° NW 05:14:26 25° NNE 05:20:57 10° ENE visible
03 Aug 11.7 21:42:35 10° ESE 21:45:54 13° E 21:49:14 10° ENE visible
03 Aug 10.3 23:34:17 23° S 23:39:36 59° ESE 23:47:32 10° NE visible
04 Aug 11.0 01:27:30 10° WSW 01:35:17 48° NW 01:43:07 10° NE visible
04 Aug 12.1 03:26:22 10° WNW 03:32:53 25° N 03:39:24 10° NE visible
04 Aug 11.4 21:56:42 12° SE 22:01:23 20° ESE 22:06:53 10° ENE visible
04 Aug 10.1 23:48:34 15° SSW 23:55:34 79° ESE 00:03:43 10° NE visible
05 Aug 11.4 01:44:16 10° W 01:51:46 39° NNW 01:59:17 10° NE visible
05 Aug 12.2 03:43:20 10° NW 03:49:42 24° N 03:56:03 10° NE visible
05 Aug 11.0 22:10:29 11° SSE 22:17:00 30° ESE 22:23:43 10° NE visible
06 Aug 10.3 00:03:31 10° SW 00:11:40 80° NW 00:19:51 10° NE visible
06 Aug 11.7 02:01:12 10° W 02:08:21 32° NNW 02:15:31 10° NE visible
06 Aug 12.3 04:00:09 10° NW 04:06:31 24° N 04:12:53 10° NE visible
06 Aug 10.6 22:25:17 10° S 22:32:44 42° ESE 22:40:11 10° NE visible
07 Aug 10.7 00:19:51 10° SW 00:27:53 62° NW 00:35:58 10° NE visible
07 Aug 12.0 02:18:13 10° WNW 02:25:01 28° NNW 02:31:51 10° NE visible
07 Aug 12.3 04:16:49 10° NW 04:23:20 25° N 04:29:50 10° ENE visible
07 Aug 10.3 22:40:41 10° SSW 22:48:34 58° ESE 22:56:29 10° NE visible
08 Aug 11.1 00:36:24 10° WSW 00:44:13 49° NW 00:52:05 10° NE visible
08 Aug 12.2 02:35:15 10° WNW 02:41:47 25° NNW 02:48:19 10° NE visible
08 Aug 12.2 04:33:18 10° NW 04:40:06 28° NNE 04:46:51 10° ENE visible
08 Aug 11.3 21:05:01 10° SE 21:10:23 20° ESE 21:15:47 10° ENE visible
08 Aug 10.1 22:56:26 10° SSW 23:04:32 78° ESE 23:12:40 10° NE visible
